Lapse_Rate
4.5 5.0 5.3 5.3 5.1 5.2 5.3 5.3 5.6 5.6 6.2 6.1 6.2 6.1 6.0 5.9 6.0 5.9 5.9 5.9 5.8 5.8 5.8 5.7 5.8 5.9 5.9 5.9 6.1 5.9 5.7 5.6 5.6 5.6 5.7 5.8 5.8 5.7 5.7 5.7 5.8 5.9 5.9
4.4 4.9 5.1 5.2 5.1 5.4 5.4 5.7 5.6 5.8 6.6 6.3 6.1 6.0 5.9 5.9 5.9 6.0 6.0 5.9 5.8 5.8 5.6 5.7 5.8 5.8 5.8 5.6 5.6 5.6 5.6 5.7 5.5 5.5 5.7 5.7 6.0 5.9 5.8 5.8 5.8 5.9 6.0
4.3 4.8 5.0 5.1 5.3 5.6 5.8 5.9 5.8 6.3 6.6 6.5 6.2 5.9 5.9 6.0 6.1 6.0 6.0 5.9 5.9 5.8 5.7 5.7 5.5 5.7 5.8 5.7 5.6 5.5 5.5 5.6 5.7 5.6 5.7 5.9 6.1 6.2 6.1 6.1 6.0 6.1 6.2
4.1 4.7 5.0 5.3 5.5 5.7 5.9 6.1 6.2 6.4 6.4 6.3 6.1 6.0 6.1 6.1 6.0 5.9 6.0 5.9 5.9 5.9 6.0 6.0 5.9 5.9 5.9 5.9 5.9 5.7 5.6 5.8 5.8 5.8 6.0 6.1 6.0 6.0 6.1 6.1 6.2 6.3 6.5
4.3 4.4 4.8 5.2 5.7 5.9 6.1 6.5 6.4 6.5 6.3 6.3 6.1 6.2 6.2 6.1 6.2 6.1 6.1 6.0 5.9 5.9 6.0 5.8 5.8 5.7 5.8 5.9 5.8 5.7 5.6 5.5 5.7 5.8 6.0 5.8 5.8 5.8 6.0 6.1 6.2 6.3 6.4
4.5 4.4 4.6 5.5 5.9 6.3 6.7 6.5 6.4 6.5 6.4 6.3 6.3 6.2 6.1 6.1 6.1 5.8 5.7 5.8 5.8 5.6 5.7 5.7 5.8 5.9 5.9 5.8 5.7 5.8 5.6 5.4 5.6 5.7 5.7 5.5 5.6 5.8 5.9 6.0 6.0 6.0 6.1
4.4 4.5 4.9 5.8 6.5 6.8 6.4 6.3 6.4 6.4 6.4 6.2 6.0 5.9 5.8 5.7 5.7 5.5 5.5 5.8 5.6 5.5 5.5 5.8 5.9 5.9 5.9 5.7 5.5 5.7 5.7 5.7 5.7 5.7 5.5 5.6 5.7 5.8 5.8 5.9 5.8 5.8 6.1
4.8 5.2 5.7 6.2 6.5 6.4 6.4 6.2 6.6 6.3 6.2 6.1 5.8 5.6 5.7 5.8 5.7 5.3 5.3 5.2 5.2 5.1 5.3 5.4 5.5 5.9 6.1 6.1 6.0 5.8 5.7 5.6 5.7 5.6 5.6 5.6 5.7 5.8 5.8 5.7 5.7 5.9 6.0
5.2 5.7 6.0 6.3 6.3 6.2 6.2 6.4 6.4 6.2 6.1 6.0 5.9 5.6 5.5 5.5 5.3 5.3 5.4 5.3 5.2 5.2 5.0 5.3 5.4 5.9 6.1 6.0 5.9 5.4 5.5 5.6 5.7 5.6 5.7 5.7 5.7 5.7 5.6 5.7 5.9 5.9 5.8
5.5 6.0 6.3 6.3 5.8 5.7 6.2 6.2 6.2 6.4 5.9 5.8 5.4 5.3 5.1 5.2 5.4 5.0 5.1 5.3 5.3 5.3 5.2 5.4 5.4 5.6 5.4 4.9 5.0 5.2 5.3 5.6 5.7 5.6 5.5 5.5 5.6 5.7 5.8 5.9 5.8 5.6 5.4
5.9 6.3 6.5 6.0 5.8 6.0 6.3 6.2 6.3 6.0 5.9 5.8 5.7 5.5 5.5 5.6 5.2 5.5 5.4 5.5 5.4 5.4 5.6 5.2 5.4 5.2 4.9 4.3 4.5 4.8 5.4 5.4 5.1 5.1 5.1 5.2 5.4 5.5 5.7 5.7 5.5 5.4 5.3
6.2 6.3 6.3 6.1 6.1 6.3 6.3 6.2 6.4 6.3 6.3 6.1 5.7 5.7 5.6 5.7 5.7 5.8 5.7 5.6 5.1 5.1 5.3 5.3 5.0 4.7 4.7 4.6 4.7 4.8 5.0 4.7 4.7 4.8 4.9 5.0 5.0 5.1 5.3 5.3 5.3 5.2 5.2
6.4 6.5 6.2 6.2 6.5 6.4 6.3 6.3 6.1 6.4 6.5 6.3 6.1 5.6 5.3 5.6 5.5 5.6 5.5 5.5 5.5 4.9 4.9 4.6 5.0 5.1 5.0 4.7 4.7 4.9 4.9 5.1 5.2 5.1 5.1 5.1 5.1 5.1 5.0 4.9 4.9 4.9 4.9
6.5 6.3 6.0 6.0 6.0 6.1 6.0 5.9 6.2 6.2 6.3 6.2 5.8 5.5 5.8 5.5 5.6 5.3 5.4 5.4 5.4 5.5 4.8 5.2 5.3 5.3 5.3 5.4 5.3 5.3 5.4 5.6 5.5 5.4 5.3 5.2 5.2 5.1 4.9 4.7 4.4 4.3 4.7
6.8 6.5 6.3 6.3 6.5 6.3 6.0 5.8 6.0 6.4 6.3 6.2 6.0 5.9 5.7 5.4 5.6 5.5 5.6 5.4 5.2 4.8 5.0 5.4 5.5 5.5 5.5 5.3 5.3 5.4 5.5 5.5 5.3 5.3 5.2 5.2 5.3 5.2 4.9 4.7 4.4 4.4 4.7
6.7 6.2 6.2 5.8 6.3 6.3 6.1 6.2 6.2 6.4 6.3 6.2 6.0 5.6 5.4 5.4 5.3 5.6 5.3 4.9 5.0 5.2 5.1 5.4 5.7 5.7 5.6 5.5 5.4 5.5 5.5 5.4 5.3 5.2 5.3 5.3 5.2 5.0 4.7 4.6 4.8 5.2 5.5
6.7 5.9 5.8 6.0 5.9 6.4 6.1 6.4 6.8 6.6 6.2 6.0 5.9 5.9 5.7 5.2 5.4 5.2 5.1 5.1 5.3 5.0 5.1 5.4 5.4 5.3 5.3 5.4 5.5 5.5 5.3 5.3 5.2 5.2 5.1 5.2 5.2 5.1 4.8 4.9 5.3 5.8 6.5
6.5 6.5 6.0 6.3 6.3 6.4 6.7 6.9 6.6 6.0 6.0 5.8 5.7 5.6 5.0 5.5 5.3 5.1 5.1 4.9 5.1 5.2 5.3 5.0 5.1 5.3 5.2 5.3 5.3 5.3 5.1 4.9 4.9 4.9 4.9 5.0 5.0 5.0 5.0 5.1 5.7 6.3 6.7
6.0 6.2 6.3 6.6 6.8 6.7 6.8 6.8 6.2 6.3 6.2 5.6 6.0 5.6 5.6 5.4 5.4 5.5 5.3 5.2 4.9 4.9 4.9 5.1 5.2 5.1 5.2 5.2 5.1 5.2 5.2 5.1 4.9 4.9 5.2 5.2 5.2 5.2 5.2 5.5 6.2 6.7 7.1
6.6 6.6 6.6 6.8 6.9 6.9 7.0 7.0 6.6 6.4 6.2 5.9 5.8 5.6 5.4 5.6 5.4 5.2 5.2 5.2 4.9 4.9 5.1 5.1 5.0 5.0 5.0 5.0 4.9 5.0 5.2 5.2 5.2 5.2 5.3 5.4 5.4 5.5 5.5 6.0 6.2 6.8 7.3
7.0 7.0 7.1 6.8 7.1 7.1 7.1 6.8 6.7 6.6 6.4 5.9 6.1 5.5 5.7 5.4 5.6 5.2 5.0 4.9 4.9 5.0 4.9 4.9 4.8 4.7 4.7 4.8 4.8 4.7 4.9 5.2 5.3 5.4 5.4 5.5 5.6 5.7 6.1 6.1 6.5 6.7 6.9
7.3 7.2 7.2 7.2 7.0 7.1 7.1 6.9 6.7 6.7 6.2 6.3 5.5 5.4 5.3 5.7 5.7 5.0 5.2 5.2 5.0 4.9 4.9 4.7 4.7 4.7 4.6 4.6 4.6 4.7 4.7 4.9 4.9 5.2 5.2 5.4 5.6 6.0 6.4 6.1 6.4 6.6 6.9
7.2 7.1 7.0 7.0 7.1 7.2 7.1 7.1 6.8 6.5 6.3 5.6 5.8 5.4 5.5 5.7 5.7 5.5 5.2 5.1 4.9 4.8 4.6 4.5 4.6 4.5 4.4 4.4 4.4 4.6 4.8 4.9 4.9 5.1 5.0 5.3 5.7 6.4 6.5 6.3 6.5 6.9 7.5
7.3 7.0 7.1 7.1 7.0 6.9 6.8 6.7 6.5 6.2 6.1 5.7 5.7 5.7 5.7 5.5 5.3 5.1 5.1 4.8 4.5 4.3 4.5 4.3 4.2 4.4 4.5 4.4 4.5 4.6 4.9 4.9 4.9 4.8 4.9 4.9 5.9 6.4 6.5 6.6 6.9 7.3 7.6
6.7 6.9 7.2 7.1 7.1 6.8 6.7 6.5 6.4 6.2 5.9 5.6 5.5 5.4 5.3 5.1 4.9 4.8 4.8 4.6 4.4 4.3 4.4 4.4 4.4 4.4 4.5 4.6 4.7 4.8 4.9 4.6 4.7 4.7 5.2 5.0 6.0 6.3 6.7 7.0 7.5 7.9 8.2
7.0 7.0 7.0 6.9 6.7 6.6 6.6 6.4 6.2 5.9 5.6 5.5 5.4 5.1 4.8 4.8 4.7 4.7 4.6 4.5 4.3 4.3 4.4 4.5 4.6 4.6 4.6 4.7 4.8 4.8 4.5 4.6 4.4 4.4 5.6 5.7 6.1 6.5 7.0 7.7 8.3 8.1 8.3
Wind_Speed
7 9 9 11 15 12 15 14 15 13 16 17 16 17 14 14 14 15 16 16 15 14 13 13 13 12 11 10 9 8 7 8 8 8 8 8 9 10 11 11 11 13 14
13 10 8 10 11 17 18 16 12 10 10 13 10 13 13 14 14 13 14 15 16 15 13 11 12 11 10 9 8 6 6 6 5 5 6 7 7 8 9 10 11 12 13
16 13 8 6 9 17 15 14 11 10 7 7 7 10 14 14 13 13 13 14 14 13 14 14 13 12 11 9 8 6 5 5 4 3 4 5 6 7 8 9 10 11 12
16 13 7 6 14 15 13 8 5 4 3 4 3 4 8 14 15 16 16 16 16 16 16 17 16 13 11 9 9 7 6 6 5 3 3 4 5 6 7 8 9 9 10
15 13 8 8 13 9 6 5 2 4 3 3 3 3 5 6 12 12 14 15 16 16 17 17 17 13 13 12 10 9 8 7 6 4 3 2 3 3 5 6 8 9 11
15 11 8 9 11 5 4 4 3 2 3 3 2 3 3 3 4 7 9 11 14 17 19 18 17 17 16 15 13 12 11 10 7 7 6 4 3 1 3 5 7 10 12
15 13 7 6 8 5 6 5 3 4 2 3 3 1 2 4 4 3 6 9 11 16 19 20 21 19 19 18 16 15 14 12 10 10 10 9 7 4 2 4 6 9 11
7 8 7 5 7 4 5 6 5 3 3 4 3 2 2 2 3 5 4 5 8 11 14 20 21 20 21 21 21 19 18 16 15 14 14 13 12 9 7 6 7 9 11
7 12 13 9 7 5 4 4 5 6 4 3 3 3 1 4 1 2 6 5 5 4 10 16 19 20 22 22 22 22 23 21 19 18 17 17 16 14 12 9 9 9 10
11 14 14 14 8 7 7 6 6 4 4 4 1 1 2 3 3 2 2 3 4 5 5 10 12 17 20 20 23 25 28 27 25 21 21 21 20 18 16 14 12 11 11
12 14 14 12 6 5 6 7 6 7 6 4 3 2 1 1 1 1 3 2 2 2 4 9 12 13 14 15 19 23 23 29 28 25 26 25 24 22 20 18 15 14 13
6 11 14 12 10 7 7 8 9 9 8 5 4 4 4 3 3 3 2 3 3 2 3 3 4 8 13 16 17 21 26 30 32 30 30 28 27 25 24 23 20 18 17
5 7 7 7 6 11 9 7 7 9 8 7 7 6 3 4 3 2 2 2 3 1 2 1 2 5 7 5 8 12 18 24 29 30 29 29 28 29 28 27 25 23 20
7 5 6 9 10 9 8 7 4 5 6 5 7 5 3 4 3 3 3 4 2 2 1 4 1 3 7 10 11 13 16 23 25 26 27 28 29 31 31 31 29 26 22
4 5 6 7 6 8 8 9 5 5 5 5 6 5 3 3 3 3 2 2 3 2 3 2 2 3 10 13 16 15 16 20 23 28 31 31 33 34 34 33 30 27 23
7 8 6 5 8 9 7 8 5 4 7 3 4 6 3 3 3 2 1 1 1 3 3 3 3 5 12 14 18 18 20 20 22 29 32 33 35 37 37 30 24 23 27
7 10 12 10 12 9 8 8 7 6 7 6 5 6 5 5 3 2 2 2 2 3 4 3 4 3 3 5 13 21 22 19 20 25 30 33 35 34 30 27 28 31 27
11 11 8 9 8 8 9 9 9 8 9 8 8 7 5 4 4 4 3 4 3 3 3 5 3 2 4 4 7 7 16 17 17 19 25 30 32 32 34 38 36 33 30
12 7 10 9 7 8 8 8 9 9 9 8 8 6 7 6 5 3 2 3 1 2 2 1 3 1 2 2 4 5 5 9 15 18 23 29 30 33 35 33 37 34 32
9 8 9 9 9 9 9 9 9 9 8 8 8 7 6 5 4 3 2 3 3 3 2 1 2 2 2 3 3 4 8 4 6 15 21 22 23 24 28 32 34 26 22
9 10 10 7 8 8 7 10 10 10 9 8 6 6 5 8 10 7 3 3 2 1 2 2 2 2 3 3 4 4 7 9 9 6 9 10 16 18 20 27 25 25 24
10 9 10 9 9 5 12 12 11 9 9 8 7 8 8 11 9 11 9 6 4 2 1 1 1 3 4 4 3 5 6 8 8 6 3 10 10 10 12 12 17 18 20
10 9 8 8 8 8 13 13 12 8 7 7 6 8 7 5 6 5 6 5 4 3 2 2 3 4 5 5 7 9 8 8 11 9 8 13 9 11 15 16 18 17 18
10 8 8 8 9 7 12 13 14 9 8 7 6 6 6 5 5 4 4 2 2 2 2 3 5 7 7 10 11 11 11 11 10 9 8 9 8 10 8 14 19 21 21
8 8 7 9 10 8 14 15 13 9 8 6 5 6 5 5 6 4 2 2 4 3 7 13 15 18 20 19 18 9 8 8 10 10 4 7 9 8 2 4 11 19 14
9 8 9 8 11 9 14 15 11 6 6 5 5 5 8 4 3 1 3 3 3 3 5 6 7 12 14 13 18 11 9 9 9 10 4 3 7 2 3 1 1 5 8
Wind_Direction
142 137 136 133 114 134 109 110 115 121 114 127 140 143 143 148 157 154 154 151 147 146 145 144 142 139 138 130 125 120 110 95 83 73 65 58 44 44 41 39 32 25 19
156 145 146 127 141 129 123 134 133 120 123 130 131 147 152 158 163 163 169 170 165 162 159 163 164 165 163 159 149 141 127 111 93 76 68 51 42 39 31 29 21 15 9
153 155 139 132 164 133 139 126 125 131 127 131 132 148 157 170 169 176 181 183 181 176 177 181 187 187 187 186 183 172 154 147 133 99 79 52 36 37 26 15 7 360 355
151 139 146 174 147 137 150 140 143 133 139 153 145 166 168 178 181 186 187 186 188 192 195 196 199 199 196 192 194 195 189 178 172 147 108 55 44 31 18 1 349 347 344
155 150 170 181 147 149 167 157 156 141 164 175 192 189 197 187 189 187 193 192 198 202 204 206 204 196 188 197 209 214 212 203 197 180 148 92 66 26 2 346 339 336 337
171 157 175 167 171 168 160 171 151 149 162 166 191 214 218 282 247 204 201 200 207 207 211 207 201 193 198 205 215 221 221 213 209 209 202 192 174 181 335 332 330 327 326
177 177 191 171 181 178 186 167 133 172 174 144 116 351 277 244 242 230 214 215 211 214 209 211 208 205 207 212 216 223 227 230 230 227 225 218 206 204 230 288 305 307 310
165 166 183 199 189 168 160 169 163 154 193 176 159 135 225 295 243 223 223 202 211 214 215 217 215 217 217 218 219 223 228 234 237 234 232 216 215 210 216 242 272 290 298
209 212 212 195 194 168 180 181 180 183 178 191 200 155 154 226 85 183 215 212 193 201 231 225 221 222 223 227 225 227 229 230 235 240 237 220 221 220 222 234 249 270 282
222 223 220 210 180 183 199 198 192 191 152 184 85 115 45 124 196 286 277 229 184 209 219 241 233 233 236 236 236 236 234 229 230 234 234 226 225 226 229 233 243 255 270
224 220 210 211 206 190 200 191 181 200 200 170 174 167 144 61 57 155 232 244 273 249 218 201 216 226 235 242 248 249 245 238 233 228 229 230 230 231 234 237 241 251 262
225 223 219 214 208 198 196 201 208 202 201 182 170 169 167 166 181 190 212 219 202 250 242 202 225 239 246 243 245 249 254 251 245 232 226 229 232 234 236 240 243 250 256
235 235 227 222 214 213 202 181 191 201 187 193 185 190 171 178 143 173 183 194 218 259 302 312 257 260 286 270 265 254 260 254 248 234 227 228 230 235 238 241 243 246 252
236 231 223 226 227 202 176 180 205 207 189 188 173 165 171 179 166 168 169 152 206 240 344 244 318 257 282 279 278 281 262 259 252 242 237 234 233 235 236 239 241 244 249
229 237 217 211 200 203 199 199 200 187 171 167 178 178 164 170 171 177 145 151 150 209 233 248 252 280 269 268 272 273 266 262 258 247 241 237 239 240 239 238 238 244 251
218 222 207 217 215 210 185 182 192 166 160 148 147 153 148 132 130 134 174 157 167 193 237 211 251 241 266 271 278 283 276 261 255 248 242 239 240 240 240 243 243 250 252
193 217 215 204 217 195 189 180 160 160 148 144 142 158 158 130 147 165 188 195 229 187 246 262 234 271 278 280 288 289 286 270 257 251 246 244 244 245 246 237 234 240 244
199 207 225 198 197 186 183 176 155 164 163 164 155 143 135 135 156 188 194 213 215 224 220 263 259 276 244 279 279 290 290 292 275 268 259 250 245 242 239 236 237 231 233
217 200 194 198 185 188 170 162 159 162 159 154 148 152 152 162 182 198 177 264 291 333 17 344 284 299 280 296 309 298 289 286 291 287 277 264 253 246 246 242 238 233 238
176 172 192 189 178 170 165 152 156 152 142 142 140 146 164 177 169 193 113 63 55 34 25 347 298 271 259 305 303 303 306 294 298 299 293 287 277 259 252 252 246 249 244
165 164 160 164 153 155 154 152 149 140 136 138 142 121 99 102 96 94 115 105 79 58 14 358 305 296 297 321 304 302 299 305 301 278 284 286 284 275 263 253 240 236 239
152 154 158 152 147 147 138 133 135 135 135 145 127 114 106 96 94 92 89 83 78 67 326 232 261 296 281 280 283 291 291 302 309 268 301 296 296 290 272 255 236 223 217
145 145 145 136 126 126 135 130 123 127 118 114 116 125 111 99 97 103 84 60 38 346 265 230 268 264 282 275 289 293 283 278 287 292 296 291 293 280 269 254 236 223 243
136 135 127 127 126 128 125 112 98 98 96 98 108 107 109 108 82 84 69 46 325 305 294 267 237 252 249 279 289 290 288 285 282 274 248 276 288 274 265 236 236 230 235
121 120 120 123 118 118 112 111 108 109 104 95 90 91 95 93 66 41 71 8 350 336 329 314 308 306 302 298 298 299 285 277 286 288 241 259 283 279 256 246 246 227 214
123 117 102 97 106 111 118 118 115 114 111 106 86 80 80 82 49 40 82 43 338 314 317 320 311 307 304 303 302 302 299 278 273 285 258 249 285 220 278 237 292 214 177